Regional Weather Roundup
Issued by NWS

Home | Current Version | Previous Version | Text Only | Print | Product List | Glossary On
Versions: 1 2 3 4 5 6 7 8 9 10 11 12 13 14 15 16 17 18 19 20 21 22 23 24 25 26 27 28 29 30 31 32 33 34 35 36 37 38 39 40 41 42 43 44 45 46 47 48 49 50
000
ASUS43 KDMX 281106
RWRIA

WEATHER ROUNDUP FOR IOWA
NATIONAL WEATHER SERVICE DES MOINES IA
600 AM CDT TUE MAR 28 2017

NOTE: "FAIR" INDICATES FEW OR NO CLOUDS BELOW 12,000 FEET WITH NO
SIGNIFICANT WEATHER AND/OR OBSTRUCTIONS TO VISIBILITY.

* - THESE STATIONS ARE NOT NWS STATIONS...THUS NOT UNDER NWS
QUALITY CONTROL.  THEY ALSO DO NOT REPORT WEATHER SUCH
AS PRECIPITATION OR FOG.

IAZ001>003-012>014-020>022-031>034-043>046-281200-
   NORTHWEST IOWA

CITY           SKY/WX    TMP DP  RH WIND       PRES   REMARKS
CARROLL *      CLOUDY    39  39 100 NW3       30.07R
CHEROKEE *     CLEAR     30  30 100 CALM      30.07R
DENISON *      CLOUDY    39  39 100 CALM      30.08R
LE MARS *      CLOUDY    32  32 100 CALM      30.07S
ORANGE CITY *  PTCLDY    36  36 100 CALM      30.07R FOG
SHELDON *      CLEAR     32  30  93 CALM      30.06R
SIOUX CITY     FOG       28  28 100 CALM      30.06R VSB 1/2
SPENCER        CLEAR     30  29  96 NW3       30.07R FOG
STORM LAKE *   FOG       36  36 100 N6        30.06R VSB<1/4 WCI  31
$$

IAZ055>058-069>071-079>083-090>094-281200-
   SOUTHWEST IOWA

CITY           SKY/WX    TMP DP  RH WIND       PRES   REMARKS
ATLANTIC *     CLOUDY    45  41  87 CALM      30.06R
AUDUBON *      CLOUDY    45  41  87 CALM      30.06S
CLARINDA *     CLOUDY    45  43  93 MISG      30.08R
COUNCIL BLFS * CLOUDY    39  39 100 NE7       30.05R WCI  34
CRESTON *      CLOUDY    45  41  87 N8        30.06S
HARLAN  *      CLOUDY    45  45 100 CALM      30.08S
LAMONI         CLOUDY    45  42  89 N6        30.04R
RED OAK *      CLOUDY    46  39  76 N5        30.06R
SHENANDOAH *   CLOUDY    46  43  87 E7        30.06R
$$

IAZ047>049-059>061-072>074-084-281200-
   CENTRAL IOWA

CITY           SKY/WX    TMP DP  RH WIND       PRES   REMARKS
AMES           CLOUDY    45  44  97 N5        30.05R
ANKENY *       CLOUDY    45  41  87 N3        30.07R
BOONE *        CLOUDY    43  43 100 N6        30.05R
CHARITON *     CLOUDY    45  43  93 N6        30.05R
DES MOINES     CLOUDY    48  41  76 N3        30.06R
GRINNELL*      CLOUDY    44  42  91 NW3       30.06R
MARSHALLTOWN   CLOUDY    44  42  93 N7        30.05R
NEWTON *       CLOUDY    46  41  81 N3        30.05R
PELLA *        CLOUDY    46  42  87 NW5       30.06S
PERRY *        CLOUDY    45  43  93 N3        30.06R
$$

IAZ004>006-015-016-023>025-035-036-281200-
   NORTH CENTRAL IOWA

CITY           SKY/WX    TMP DP  RH WIND       PRES   REMARKS
ALGONA *       FOG       34  34 100 CALM      30.06S VSB 1/4
CLARION *      FOG       32  32 100 NE5       30.07R VSB 1/2 WCI  27
ESTHERVILLE    CLEAR     32  32 100 NW3       30.06R
FORT DODGE *   CLOUDY    32  28  86 CALM      30.07S VSB 1/4
MASON CITY     FOG       31  30  96 N5        30.08R VSB 1/4 WCI  26
FOREST CITY *    N/A     28  27  93 CALM      30.07R FOG
WEBSTER CITY * CLOUDY    41  39  93 N3        30.05R
IOWA FALLS *   CLOUDY    44  41  91 N3        30.06S
$$

IAZ007>011-017>019-026>030-037>042-050>054-066-281200-
   NORTHEAST IOWA

CITY           SKY/WX    TMP DP  RH WIND       PRES   REMARKS
CEDAR RAPIDS   CLOUDY    45  45 100 N5        30.04R
CHARLES CITY * CLOUDY    43  43 100 N7        30.07R
CLINTON *      CLOUDY    46  45  96 N7        30.05R FOG
DECORAH *      CLOUDY    41  39  93 N3        30.07R
DUBUQUE        CLOUDY    45  44  97 NE6       30.04R FOG
MONTICELLO *   CLOUDY    45  45 100 N7        30.05R FOG
OELWEIN *      CLOUDY    43  43 100 NE7       30.06R
WATERLOO       CLOUDY    44  42  93 N3        30.06R
$$

IAZ064-065-067-068-078-281200-
   EAST CENTRAL IOWA

CITY           SKY/WX    TMP DP  RH WIND       PRES   REMARKS
DAVENPORT      CLOUDY    47  44  90 N3        30.05R
IOWA CITY      CLOUDY    48  44  86 N6        30.06R
MUSCATINE *    CLOUDY    48  45  87 CALM      30.05R
QUAD CITIES    CLOUDY    49  44  83 N3        30.03R
$$

IAZ062-063-075>077-085>089-095>099-281200-
   SOUTHEAST IOWA

CITY           SKY/WX    TMP DP  RH WIND       PRES   REMARKS
BURLINGTON     CLOUDY    49  47  93 N6        30.03R
FAIRFIELD *    CLOUDY    46  46 100 N5        30.04R FOG
FORT MADISON * CLOUDY    48  46  93 CALM      30.04R FOG
KEOKUK *       CLOUDY    48  48 100 CALM      30.04R FOG
OSKALOOSA *    CLOUDY    45  42  90 N6        30.05R
CENTERVILLE *  CLOUDY    45  45 100 CALM      30.06R
OTTUMWA        CLOUDY    46  44  93 N7        30.04R
WASHINGTON *   CLOUDY    46  46 100 N6        30.06R
$$

ABBREVIATIONS USED IN REMARKS
   TC - TEMPERATURES IN CELSIUS
  WCI - WIND CHILL INDEX
   HX - HEAT INDEX
  VSB - VISIBILITY
$$




USA.gov is the U.S. government's official web portal to all federal, state and local government web resources and services.